Pensacola, FL

7:42 PM CDT on April 22, 2018 (GMT -0500)
Pensacola Regional

Weather History for KPNS - December, 2012

Change the Weather History Date:

Friday, December 21, 2012

  Actual Average Record
Temperature  
Mean Temperature 48 °F 52 °F  
Max Temperature 57 °F 62 °F 78 °F (1970)
Min Temperature 38 °F 43 °F 17 °F (1901)
Degree Days  
Heating Degree Days 17 13  
Month to date heating degree days 103 234  
Since 1 July heating degree days 315 446  
Cooling Degree Days 0 0  
Month to date cooling degree days 20 7  
Year to date cooling degree days 3049 2603  
Moisture  
Dew Point 21 °F    
Average Humidity 37    
Maximum Humidity 54    
Minimum Humidity 19    
Precipitation  
Precipitation 0.00 in 0.14 in 3.16 in (1931)
Month to date precipitation 1.23 3.14  
Year to date precipitation 65.77 63.86  
Snow  
Snow 0.00 in 0.00 in 0.00 in (2001)
Month to date snowfall 0.0 0.0  
Since 1 July snowfall 0.0 0.0  
Snow Depth 0.00 in    
Sea Level Pressure  
Sea Level Pressure 30.28 in    
Wind  
Wind Speed 11 mph (NW)    
Max Wind Speed 23 mph    
Max Gust Speed 29 mph    
Visibility 10 miles    
Events      
T = Trace of Precipitation, MM = Missing Value Source: NWS Daily Summary

Daily Weather History Graph

Daily Weather History Graph

Search for Another Location

Airport or City:

Astronomy

Dec. 21, 2012 Rise Set
Actual Time 6:41 AM CST 4:52 PM CST
Civil Twilight 6:15 AM CST 5:19 PM CST
Nautical Twilight 5:45 AM CST 5:49 PM CST
Astronomical Twilight 5:15 AM CST 6:18 PM CST
Moon 12:24 PM CST (12/21) 12:45 AM CST (12/21)
Length of Visible Light 11h 03m
Length of Day
10h 10m
Waxing Gibbous, 65% of the Moon is Illuminated
Dec 21
Waxing Gibbous
Dec 28
Full
Jan 4
Last Quarter
Jan 11
New
Jan 18
First Quarter

Hourly Weather History & Observations

Time (CST) Temp. Windchill Dew Point Humidity Pressure Visibility Wind Dir Wind Speed Gust Speed Precip Events Conditions
12:53 AM 45.0 °F 39.7 °F 28.9 °F 53% 30.20 in 10.0 mi WNW 10.4 mph 18.4 mph N/A   Clear
1:53 AM 44.1 °F 39.5 °F 26.1 °F 49% 30.21 in 10.0 mi WNW 8.1 mph - N/A   Clear
2:53 AM 42.1 °F 34.9 °F 24.1 °F 49% 30.21 in 10.0 mi NW 13.8 mph - N/A   Clear
3:53 AM 41.0 °F 35.2 °F 25.0 °F 53% 30.22 in 10.0 mi WNW 9.2 mph - N/A   Clear
4:53 AM 39.9 °F 33.4 °F 23.0 °F 51% 30.23 in 10.0 mi WNW 10.4 mph - N/A   Clear
5:53 AM 37.9 °F 32.1 °F 23.0 °F 55% 30.26 in 10.0 mi WNW 8.1 mph - N/A   Clear
6:53 AM 37.9 °F 32.1 °F 23.0 °F 55% 30.29 in 10.0 mi WNW 8.1 mph - N/A   Clear
7:53 AM 41.0 °F 32.8 °F 21.9 °F 47% 30.31 in 10.0 mi WNW 16.1 mph 19.6 mph N/A   Clear
8:53 AM 43.0 °F 35.7 °F 19.9 °F 40% 30.32 in 10.0 mi NW 15.0 mph 23.0 mph N/A   Clear
9:53 AM 46.9 °F - 18.0 °F 32% 30.33 in 10.0 mi NNW 18.4 mph 23.0 mph N/A   Clear
10:53 AM 50.0 °F - 17.1 °F 27% 30.32 in 10.0 mi NW 12.7 mph - N/A   Clear
11:53 AM 53.1 °F - 14.0 °F 21% 30.28 in 10.0 mi NNW 21.9 mph 28.8 mph N/A   Clear
12:53 PM 55.0 °F - 14.0 °F 20% 30.25 in 10.0 mi NW 17.3 mph 28.8 mph N/A   Clear
1:53 PM 55.9 °F - 14.0 °F 19% 30.23 in 10.0 mi NNW 16.1 mph 23.0 mph N/A   Clear
2:53 PM 57.0 °F - 15.1 °F 19% 30.24 in 10.0 mi NNW 12.7 mph - N/A   Clear
3:53 PM 55.0 °F - 15.1 °F 21% 30.25 in 10.0 mi NNW 15.0 mph 21.9 mph N/A   Clear
4:53 PM 51.1 °F - 17.1 °F 26% 30.25 in 10.0 mi NW 8.1 mph 18.4 mph N/A   Clear
5:53 PM 46.9 °F - 21.0 °F 36% 30.28 in 10.0 mi NW 6.9 mph - N/A   Clear
6:53 PM 45.0 °F 41.2 °F 23.0 °F 42% 30.31 in 10.0 mi NW 6.9 mph - N/A   Clear
7:53 PM 44.1 °F 40.8 °F 21.9 °F 42% 30.32 in 10.0 mi NW 5.8 mph - N/A   Clear
8:53 PM 41.0 °F 37.1 °F 24.1 °F 51% 30.33 in 10.0 mi NW 5.8 mph - N/A   Clear
9:53 PM 41.0 °F 36.4 °F 23.0 °F 49% 30.34 in 10.0 mi NW 6.9 mph - N/A   Clear
10:53 PM 41.0 °F 36.4 °F 23.0 °F 49% 30.36 in 10.0 mi NW 6.9 mph - N/A   Clear
11:53 PM 39.0 °F 34.8 °F 24.1 °F 55% 30.36 in 10.0 mi WNW 5.8 mph - N/A   Clear